Hourly Data Report for October 05, 2017

All times are specified in Local Standard Time (LST). Add 1 hour to adjust for Daylight Saving Time where and when it is observed.

HOLMAN CS
NORTHWEST TERRITORIES

70°45'41.002" N
117°48'00.002" W
29.90 m
2502505
71029
XHI

Download Data

Hourly Data (October 2017)
Hourly Data Report for October 5, 2017
Temp Definition
°C
Dew Point Temp Definition
°C
Rel Hum Definition
%
Wind Dir Definition
10's deg

Wind Spd Definition
km/h
Visibility Definition
km
Stn Press Definition
kPa
Hmdx Definition


Wind Chill Definition


Weather Definition


TIME
00:00 -10.6 -12.5 86 4 15   101.55   -17 LegendNANA
01:00 -9.0 -10.3 90 5 14   101.48   -15 LegendNANA
02:00 -7.2 -9.8 82 6 17   101.40   -14 LegendNANA
03:00 -7.5 -10.4 80 25 2   101.37   -9 LegendNANA
04:00 -7.8 -9.6 87 6 8   101.30   -12 LegendNANA
05:00 -7.3 -9.1 87 7 21   101.18   -15 LegendNANA
06:00 -6.7 -9.2 82 10 9   101.13   -11 LegendNANA
07:00 -7.4 -9.8 83 8 8   101.06   -11 LegendNANA
08:00 -6.9 -10.0 79 4 15   100.98   -13 LegendNANA
09:00 -5.3 -9.9 70 7 14   100.92   -11 LegendNANA
10:00 -3.0 -11.3 53 20 4   100.87   -5 LegendNANA
11:00 -3.1 -10.3 57 10 25   100.74   -10 LegendNANA
12:00 -2.4 -9.9 56 9 25   100.62   -9 LegendNANA
13:00 -2.0 -9.3 57 13 7   100.60   -5 LegendNANA
14:00 -1.9 -7.4 66 8 17   100.52   -7 LegendNANA
15:00 -1.3 -7.2 64 9 18   100.46   -7 LegendNANA
16:00 -1.9 -7.4 66 9 19   100.41   -7 LegendNANA
17:00 -2.6 -7.7 68 15 11   100.34   -7 LegendNANA
18:00 -2.6 -5.5 81 10 23   100.28   -9 LegendNANA
19:00 -3.3 -5.9 82 10 18   100.22   -9 LegendNANA
20:00 -3.9 -6.2 84 9 19   100.18   -10 LegendNANA
21:00 -3.4 -5.5 85 10 29   100.09   -11 LegendNANA
22:00 -3.6 -5.2 89 10 32   100.04   -11 LegendNANA
23:00 -3.6 -4.8 91 10 29   100.02   -11 LegendNANA

Notes on Data Quality.

Legend

  • E = Estimated
  • M = Missing
  • NA = Not Available
  • ‡ = Partner data that is not subject to review by the National Climate Archives
Date modified: